STARLINK-11255, 60730

Orbit data source: Space-Track

STARLINK-11255, 60730 is a payload satellite owned by SpaceX/Seattle (US) in LEO that was launched on Wed, 28 Aug 2024 UTC via an FALCON 9 launch vehicle from the Air Force Eastern Test Range (AFETR). Payload-class satellites include a variety of spacecraft equipped with specific instruments for various scientific and technological missions. These include communications satellites like Starlink; space stations such as the ISS; scientific satellites like the Hubble; Earth observation satellites from companies like Planet Labs, Umbra, and HawkEye 360; GPS; miniature CubeSats for education and research; and military/defense satellites.

Loading next visibility...
Identifier
60730, 2024-152L
Orbit
LEO
Country
Flag of USUS
Related business
Manufacturer
SpaceX/Seattle
Mission
Operational Commercial Communications
Bus & Motor
STARLINK V2MD, Unknown motor
Mass
960 kg wet, ~910 kg dry
Launch date (UTC)
2024-08-28 (1 year ago)
Launch vehicle
FALCON 9
Launch site
Air Force Eastern Test Range (AFETR)
Object type
Payload
Rocket body
Debris
Shape & HBR
Box + 2 Pan, 14.5 m
Radar Cross Section
36.964 m², Large (>1 m²)

Expand to show TLE details & history
Last TLE update: 13 hours ago

TLE from 13 hours ago
0 STARLINK-11255
1 60730U 24152L   25259.26867797 -.00000787  00000-0 -16425-5 0  9992
2 60730  53.1587 255.8396 0000916  83.1211 276.9911 15.69706986 61455
Epoch: 2025-09-16T06:26Z
TLE epoch observation values (Epoch: 2025-09-16T06:26:53.776Z)
Latitude
-0.00004°
Longitude
163.6541°
Altitude
360.575 km
Speed
7.694 km/s
True Right ascension
17h 03m 21s
True Declination
0° 00' 00"
Sunlit
Object was in daylight at epoch
Visualization orbit readout
Latitude
Unknown
Longitude
Unknown
Altitude
Unknown
Speed
Unknown
Apparent Right ascension
Unknown
Apparent Declination
Unknown
Sunlit
N/A
Visualization observer readout
Local Sidereal Time
12:27:19
Azimuth
Unknown
Elevation
Unknown
Doppler factor
Unknown
Orbital elements
Apogee altitude
360.613 km
Perigee altitude
359.379 km
Semi-major axis
6,738.133 km
Eccentricity
0.00009
Inclination
53.1587°
RAAN
255.8396°
Arg. of periapsis
83.1211°
True anomaly
276.98068°
Mean anomaly
276.9911°
Eccentric anomaly
276.98589°
Mean motion
3.92404 °/min
Orbital period
91.74 mins
BSTAR
-0.0000016425
Loading maneuver chart data...
Computing Atmospheric mass density...
Loading historical data...
Loading historical data...
Loading historical data...
Loading historical data...
Loading historical data...
Loading historical data...
Loading historical data...

Documentation

Showing up to 5 results
|